STARLINK-4742 (53795 NORAD) Tracking and Keplerian Element Data

This shows tracking and keplerian element data for the satellite.

Feedback or suggestion? Click here.




ElementValue
Catalog53795
NameSTARLINK-4742
Epoch Orbit1107
Epoch Day325.33334491
Epoch Year2022
RAAN280.3776
Inclination53.2169
Eccentricity0.0001582
Argument of Perigee41.3778
Mean Anonmoly315.4971
Mean Motion15.11970523
Decay Rate-0.01143273
L11 53795U 22111Y 22325.33334491 -.01143273 00000+0 -71523-1 0 9991
L22 53795 53.2169 280.3776 0001582 41.3778 315.4971 15.11970523 11079



Live tracking and technical data element details for STARLINK-4742 (NORAD 53795). STARLINK-4742 can be tracked NOW for your location showing map with azimuth and elevation plus other details from your city location.







IsCatalogInMostPopularTable: catalog: 53795, numindb: -1

Insert: records affected: 1


GetName: 53795 STARLINK-4742

Hit Count: inserted at: Thu, 08 Dec 2022 10:15:45 GMT